Time,TemperatureF,DewpointF,PressureIn,WindDirection,WindDirectionDegrees,WindSpeedMPH,WindSpeedGustMPH,Humidity,HourlyPrecipIn,Conditions,Clouds,dailyrainin,SolarRadiationWatts/m^2,SoftwareType,DateUTC
2015-07-30 00:00:00,70.0,53.0,-100.00,SW,225,3.0,-999.0,55,-99.99,,,-99.99,0.000000,,2015-07-30 05:00:00,
2015-07-30 00:34:00,70.0,53.0,-100.00,SW,225,3.0,-999.0,55,-99.99,,,-99.99,0.000000,,2015-07-30 05:34:00,
2015-07-30 00:44:00,70.0,53.0,-100.00,SW,225,3.0,-999.0,55,-99.99,,,-99.99,0.000000,,2015-07-30 05:44:00,
2015-07-30 00:54:00,70.0,53.0,-100.00,SW,225,3.0,-999.0,55,-99.99,,,-99.99,0.000000,,2015-07-30 05:54:00,
2015-07-30 01:00:00,69.0,53.0,-100.00,SW,225,2.0,-999.0,56,-99.99,,,-99.99,0.000000,,2015-07-30 06:00:00,
2015-07-30 01:34:00,69.0,53.0,-100.00,SW,225,2.0,-999.0,56,-99.99,,,-99.99,0.000000,,2015-07-30 06:34:00,
2015-07-30 01:44:00,69.0,53.0,-100.00,SW,225,2.0,-999.0,56,-99.99,,,-99.99,0.000000,,2015-07-30 06:44:00,
2015-07-30 02:00:00,69.0,53.0,-100.00,WSW,247,1.0,-999.0,56,-99.99,,,-99.99,0.000000,,2015-07-30 07:00:00,
2015-07-30 02:34:00,69.0,53.0,-100.00,WSW,247,1.0,-999.0,56,-99.99,,,-99.99,0.000000,,2015-07-30 07:34:00,
2015-07-30 02:44:00,69.0,53.0,-100.00,WSW,247,1.0,-999.0,56,-99.99,,,-99.99,0.000000,,2015-07-30 07:44:00,
2015-07-30 02:53:00,69.0,53.0,-100.00,WSW,247,1.0,-999.0,56,-99.99,,,-99.99,0.000000,,2015-07-30 07:53:00,
2015-07-30 03:00:00,70.0,53.0,-100.00,WSW,247,2.0,-999.0,55,-99.99,,,-99.99,0.000000,,2015-07-30 08:00:00,
2015-07-30 03:33:00,70.0,53.0,-100.00,WSW,247,2.0,-999.0,55,-99.99,,,-99.99,0.000000,,2015-07-30 08:33:00,
2015-07-30 03:44:00,70.0,53.0,-100.00,WSW,247,2.0,-999.0,55,-99.99,,,-99.99,0.000000,,2015-07-30 08:44:00,
2015-07-30 03:53:00,70.0,53.0,-100.00,WSW,247,2.0,-999.0,55,-99.99,,,-99.99,0.000000,,2015-07-30 08:53:00,
2015-07-30 04:00:00,69.0,53.0,-100.00,WSW,247,2.0,-999.0,56,-99.99,,,-99.99,0.000000,,2015-07-30 09:00:00,
2015-07-30 04:34:00,69.0,53.0,-100.00,WSW,247,2.0,-999.0,56,-99.99,,,-99.99,0.000000,,2015-07-30 09:34:00,
2015-07-30 04:53:00,69.0,53.0,-100.00,WSW,247,2.0,-999.0,56,-99.99,,,-99.99,0.000000,,2015-07-30 09:53:00,
2015-07-30 05:00:00,68.0,54.0,-100.00,West,270,1.0,-999.0,60,-99.99,,,-99.99,0.000000,,2015-07-30 10:00:00,
2015-07-30 05:33:00,68.0,54.0,-100.00,West,270,1.0,-999.0,60,-99.99,,,-99.99,0.000000,,2015-07-30 10:33:00,
2015-07-30 05:44:00,68.0,54.0,-100.00,West,270,1.0,-999.0,60,-99.99,,,-99.99,0.000000,,2015-07-30 10:44:00,
2015-07-30 05:54:00,68.0,54.0,-100.00,West,270,1.0,-999.0,60,-99.99,,,-99.99,0.000000,,2015-07-30 10:54:00,
2015-07-30 06:00:00,67.0,54.0,-100.00,West,270,2.0,-999.0,61,-99.99,,,-99.99,5.800000,,2015-07-30 11:00:00,
2015-07-30 06:34:00,67.0,54.0,-100.00,West,270,2.0,-999.0,61,-99.99,,,-99.99,5.800000,,2015-07-30 11:34:00,
2015-07-30 06:44:00,67.0,54.0,-100.00,West,270,2.0,-999.0,61,-99.99,,,-99.99,5.800000,,2015-07-30 11:44:00,
2015-07-30 06:54:00,67.0,54.0,-100.00,West,270,2.0,-999.0,61,-99.99,,,-99.99,5.800000,,2015-07-30 11:54:00,
2015-07-30 07:00:00,68.0,54.0,-100.00,West,270,3.0,-999.0,61,-99.99,,,-99.99,96.279999,,2015-07-30 12:00:00,
2015-07-30 07:44:00,68.0,54.0,-100.00,West,270,3.0,-999.0,61,-99.99,,,-99.99,96.279999,,2015-07-30 12:44:00,
2015-07-30 07:54:00,68.0,54.0,-100.00,West,270,3.0,-999.0,61,-99.99,,,-99.99,96.279999,,2015-07-30 12:54:00,
2015-07-30 08:00:00,70.0,55.0,-100.00,West,270,6.0,-999.0,59,-99.99,,,-99.99,258.679993,,2015-07-30 13:00:00,
2015-07-30 08:34:00,70.0,55.0,-100.00,West,270,6.0,-999.0,59,-99.99,,,-99.99,258.679993,,2015-07-30 13:34:00,
2015-07-30 08:44:00,70.0,55.0,-100.00,West,270,6.0,-999.0,59,-99.99,,,-99.99,258.679993,,2015-07-30 13:44:00,
2015-07-30 08:53:00,70.0,55.0,-100.00,West,270,6.0,-999.0,59,-99.99,,,-99.99,258.679993,,2015-07-30 13:53:00,
2015-07-30 09:00:00,72.0,55.0,-100.00,West,270,7.0,-999.0,56,-99.99,,,-99.99,429.200012,,2015-07-30 14:00:00,
2015-07-30 09:34:00,72.0,55.0,-100.00,West,270,7.0,-999.0,56,-99.99,,,-99.99,429.200012,,2015-07-30 14:34:00,
2015-07-30 09:44:00,72.0,55.0,-100.00,West,270,7.0,-999.0,56,-99.99,,,-99.99,429.200012,,2015-07-30 14:44:00,
2015-07-30 10:00:00,74.0,56.0,-100.00,West,270,6.0,-999.0,53,-99.99,,,-99.99,582.320007,,2015-07-30 15:00:00,
2015-07-30 10:33:00,74.0,56.0,-100.00,West,270,6.0,-999.0,53,-99.99,,,-99.99,582.320007,,2015-07-30 15:33:00,
2015-07-30 10:44:00,74.0,56.0,-100.00,West,270,6.0,-999.0,53,-99.99,,,-99.99,582.320007,,2015-07-30 15:44:00,
2015-07-30 10:56:00,74.0,56.0,-100.00,West,270,6.0,-999.0,53,-99.99,,,-99.99,582.320007,,2015-07-30 15:56:00,
2015-07-30 11:00:00,77.0,56.0,-100.00,West,270,7.0,-999.0,48,-99.99,,,-99.99,712.239990,,2015-07-30 16:00:00,
2015-07-30 12:00:00,79.0,56.0,-100.00,WSW,247,7.0,-999.0,44,-99.99,,,-99.99,801.559998,,2015-07-30 17:00:00,
2015-07-30 12:34:00,79.0,56.0,-100.00,WSW,247,7.0,-999.0,44,-99.99,,,-99.99,801.559998,,2015-07-30 17:34:00,
2015-07-30 12:45:00,79.0,56.0,-100.00,WSW,247,7.0,-999.0,44,-99.99,,,-99.99,801.559998,,2015-07-30 17:45:00,
2015-07-30 12:54:00,79.0,56.0,-100.00,WSW,247,7.0,-999.0,44,-99.99,,,-99.99,801.559998,,2015-07-30 17:54:00,
2015-07-30 13:00:00,81.0,56.0,-100.00,West,270,7.0,-999.0,43,-99.99,,,-99.99,838.679993,,2015-07-30 18:00:00,
2015-07-30 13:35:00,81.0,56.0,-100.00,West,270,7.0,-999.0,43,-99.99,,,-99.99,838.679993,,2015-07-30 18:35:00,
2015-07-30 13:45:00,81.0,56.0,-100.00,West,270,7.0,-999.0,43,-99.99,,,-99.99,838.679993,,2015-07-30 18:45:00,
2015-07-30 14:00:00,82.0,54.0,-100.00,West,270,9.0,-999.0,37,-99.99,,,-99.99,808.520020,,2015-07-30 19:00:00,
2015-07-30 14:35:00,82.0,54.0,-100.00,West,270,9.0,-999.0,37,-99.99,,,-99.99,808.520020,,2015-07-30 19:35:00,
2015-07-30 14:44:00,82.0,54.0,-100.00,West,270,9.0,-999.0,37,-99.99,,,-99.99,808.520020,,2015-07-30 19:44:00,
2015-07-30 14:54:00,82.0,54.0,-100.00,West,270,9.0,-999.0,37,-99.99,,,-99.99,808.520020,,2015-07-30 19:54:00,
2015-07-30 15:34:00,83.0,51.0,-100.00,WNW,292,8.0,-999.0,33,-99.99,,,-99.99,689.039978,,2015-07-30 20:34:00,
2015-07-30 15:44:00,83.0,51.0,-100.00,WNW,292,8.0,-999.0,33,-99.99,,,-99.99,689.039978,,2015-07-30 20:44:00,